Date,TemperatureHighF,TemperatureAvgF,TemperatureLowF,DewpointHighF,DewpointAvgF,DewpointLowF,HumidityHigh,HumidityAvg,HumidityLow,PressureMaxIn,PressureMinIn,WindSpeedMaxMPH,WindSpeedAvgMPH,GustSpeedMaxMPH,PrecipitationSumIn
2013-1-1,42.2,38.2,33.9,41.0,35.3,27.0,97,89,75,30.20,30.03,8,2,10,0.00
2013-1-2,42.9,38.6,36.1,42.0,35.7,33.0,97,89,77,30.19,29.99,15,6,26,0.01
2013-1-3,38.9,34.9,28.7,34.0,31.0,27.0,95,86,70,30.37,30.15,20,5,24,0.00
2013-1-4,39.3,31.7,25.2,26.0,23.3,18.0,93,73,46,30.47,30.35,25,7,30,0.00
2013-1-5,49.8,35.7,22.5,32.0,23.2,20.0,91,64,34,30.49,30.30,8,3,13,0.00
2013-1-6,43.2,39.2,35.3,36.0,33.4,30.0,89,80,69,30.30,30.13,18,7,24,0.00
2013-1-7,53.1,39.0,28.9,32.0,27.2,23.0,87,65,35,30.46,30.30,14,5,23,0.00
2013-1-8,55.1,39.8,27.5,42.0,32.7,25.0,94,77,54,30.50,30.36,9,3,14,0.00
2013-1-9,48.7,44.2,39.9,46.0,41.5,38.0,94,90,87,30.53,30.42,4,1,6,0.00
2013-1-10,65.8,52.3,41.1,54.0,47.1,40.0,97,84,63,30.55,30.32,15,4,26,0.00
2013-1-11,58.6,53.8,48.6,55.0,51.6,46.0,96,92,84,30.33,30.12,17,7,21,0.12
2013-1-12,71.7,60.4,51.9,62.0,56.4,51.0,97,87,67,30.20,30.07,12,4,21,0.00
2013-1-13,71.4,63.0,54.9,59.0,56.4,53.0,92,79,57,30.09,29.99,15,6,22,0.02
2013-1-14,61.1,51.9,43.6,59.0,50.9,43.0,98,96,91,30.22,30.00,18,5,25,1.83
2013-1-15,51.6,47.6,43.9,51.0,47.1,43.0,98,98,97,30.17,30.02,9,3,13,1.18
2013-1-16,57.8,51.5,46.9,55.0,50.3,46.0,97,96,87,30.04,29.95,10,2,12,0.27
2013-1-17,48.5,40.7,32.5,48.0,39.7,30.0,97,96,91,30.29,29.84,25,8,29,1.58
2013-1-18,46.6,34.4,28.5,32.0,26.6,20.0,95,76,38,30.59,30.30,19,5,22,0.00
2013-1-19,56.5,38.4,26.4,31.0,27.0,20.0,96,69,26,30.53,30.24,6,2,13,0.00
2013-1-20,53.7,39.0,27.4,36.0,31.1,26.0,96,76,45,30.24,30.12,21,5,23,0.01
2013-1-21,47.8,35.8,25.4,32.0,23.9,15.0,96,66,36,30.17,30.04,31,8,36,0.00
2013-1-22,30.1,25.1,19.3,15.0,5.3,-2.0,63,44,26,30.35,30.13,29,12,34,0.00
2013-1-23,44.4,30.8,24.7,27.0,15.5,3.0,88,55,39,30.43,30.16,20,6,25,0.00
2013-1-24,44.4,32.5,23.2,33.0,17.4,5.0,90,55,31,30.47,30.11,34,12,48,0.00
2013-1-25,37.5,27.5,22.2,36.0,18.4,5.0,95,71,45,30.49,30.16,23,7,26,0.02
2013-1-26,44.9,36.1,28.3,36.0,28.8,23.0,94,76,46,30.41,30.21,20,8,28,0.00
2013-1-27,44.5,34.2,23.9,32.0,27.7,22.0,94,78,60,30.56,30.41,14,5,19,0.03
2013-1-28,65.6,47.2,33.4,49.0,39.2,31.0,92,75,51,30.48,30.25,9,3,15,0.00
2013-1-29,72.5,54.4,38.4,57.0,47.6,37.0,96,80,45,30.28,29.99,18,4,20,0.01
2013-1-30,63.5,57.6,45.2,60.0,54.9,40.0,97,90,82,29.98,29.46,24,9,33,1.99
2013-1-31,44.0,34.5,28.6,39.0,23.4,19.0,88,65,47,30.07,29.57,30,12,40,0.00
2013-2-1,42.4,26.1,19.0,31.0,15.6,8.0,91,65,46,30.45,29.98,27,12,43,0.00
2013-2-2,41.8,29.6,18.5,32.0,20.5,10.0,95,71,36,30.45,30.11,15,3,19,0.00
2013-2-3,41.7,34.5,29.0,32.0,27.2,21.0,94,75,55,30.15,29.99,30,9,36,0.02
2013-2-4,53.2,36.3,24.2,28.0,23.3,20.0,85,62,33,30.21,30.03,23,5,31,0.00
2013-2-5,56.1,40.9,30.6,40.0,32.2,26.0,93,73,47,30.07,29.96,12,3,17,0.00
2013-2-6,56.7,42.5,31.4,36.0,30.2,23.0,96,67,28,30.28,30.07,13,4,17,0.00
2013-2-7,45.6,39.9,32.7,40.0,34.0,27.0,96,81,53,30.29,30.03,12,3,21,0.38
2013-2-8,49.6,41.4,34.5,44.0,37.0,28.0,97,85,60,30.23,29.96,28,8,39,0.02
2013-2-9,55.5,38.2,29.6,30.0,24.1,13.0,89,63,19,30.39,30.21,19,6,28,0.00
2013-2-10,52.2,43.5,32.1,43.0,29.1,21.0,93,60,35,30.41,30.15,21,8,28,0.40
2013-2-11,56.6,50.2,41.4,52.0,45.5,32.0,95,85,55,30.16,30.02,18,4,23,0.00
2013-2-12,50.9,44.2,38.7,38.0,30.5,24.0,93,61,35,30.18,29.96,16,5,23,0.11
2013-2-13,49.7,41.1,35.7,43.0,37.4,31.0,94,87,62,29.95,29.67,28,8,30,0.11
2013-2-14,51.6,40.2,31.2,33.0,28.9,26.0,90,67,40,30.11,29.96,15,6,22,0.00
2013-2-15,56.6,38.6,26.5,38.0,30.9,25.0,95,77,36,30.17,30.00,15,5,26,0.01
2013-2-16,33.5,29.9,23.2,30.0,22.7,12.0,89,75,50,30.09,29.94,25,10,39,0.00
2013-2-17,34.4,26.0,20.4,18.0,11.9,8.0,85,56,36,30.35,30.10,35,11,39,0.00
2013-2-18,53.5,35.5,17.6,26.0,21.0,15.0,93,61,34,30.46,30.20,17,5,25,0.00
2013-2-19,52.3,42.4,34.7,40.0,27.7,15.0,90,59,31,30.20,29.91,20,8,31,0.02
2013-2-20,42.6,34.6,28.9,18.0,12.5,5.0,62,42,22,30.23,30.11,24,10,33,0.00
2013-2-21,63.6,40.5,22.5,36.0,17.2,1.0,89,49,9,30.30,30.11,15,4,18,0.20
2013-2-22,44.7,39.5,35.6,40.0,36.3,33.0,93,88,78,30.28,30.11,15,7,24,0.33
2013-2-23,55.4,46.1,39.3,50.0,43.6,38.0,96,91,80,30.12,29.86,8,2,13,0.20
2013-2-24,52.1,43.5,31.5,43.0,31.5,24.0,95,66,34,30.10,29.89,23,7,28,0.00
2013-2-25,48.4,37.7,28.4,31.0,27.1,25.0,93,68,43,30.18,30.04,17,5,20,0.00
2013-2-26,41.5,37.5,33.3,39.0,35.3,30.0,96,92,83,30.04,29.58,27,9,34,0.96
2013-2-27,52.5,42.4,37.2,38.0,33.6,30.0,92,72,53,29.85,29.71,15,6,19,0.02
2013-2-28,37.4,34.5,32.0,34.0,27.2,24.0,88,74,65,29.99,29.77,23,10,28,0.00
2013-3-1,37.5,33.5,30.4,30.0,28.8,27.0,91,83,69,30.02,29.96,18,7,22,0.00
2013-3-2,37.0,32.2,27.1,30.0,26.8,21.0,89,80,63,30.05,29.93,22,10,29,0.00
2013-3-3,30.6,26.4,23.4,22.0,17.7,15.0,86,70,55,30.15,30.03,25,12,31,0.00
2013-3-4,51.8,35.6,24.9,28.0,18.5,13.0,76,54,21,30.24,30.11,18,6,19,0.00
2013-3-5,50.1,39.5,33.5,48.0,35.6,27.0,97,85,67,30.13,29.68,27,4,32,0.78
2013-3-6,34.0,29.2,25.8,29.0,25.2,23.0,94,85,71,30.27,29.77,36,16,50,0.00
2013-3-7,36.4,31.0,28.3,28.0,25.7,24.0,89,81,71,30.40,30.27,24,11,27,0.00
2013-3-8,46.9,35.0,25.5,29.0,25.5,23.0,90,71,43,30.44,30.34,17,6,22,0.00
2013-3-9,64.2,44.5,23.8,29.0,26.3,22.0,94,56,25,30.42,30.25,12,4,16,0.00
2013-3-10,64.2,54.0,44.5,36.0,32.0,28.0,60,44,30,30.28,30.12,20,8,27,0.00
2013-3-11,55.7,51.7,48.8,51.0,46.3,35.0,95,82,53,30.14,29.82,26,10,32,0.69
2013-3-12,52.2,43.1,36.1,51.0,37.4,33.0,96,81,58,30.09,29.78,28,11,35,0.27
2013-3-13,41.9,35.6,28.6,33.0,26.0,18.0,96,71,44,30.28,30.09,26,8,39,0.00
2013-3-14,43.4,32.9,25.0,21.0,16.8,11.0,70,54,32,30.39,30.28,25,12,34,0.00
2013-3-15,68.7,46.4,28.4,41.0,30.4,19.0,84,58,25,30.29,29.97,11,3,19,0.00
2013-3-16,76.0,58.3,39.4,48.0,43.5,38.0,93,63,32,29.96,29.76,13,3,19,0.00
2013-3-17,73.8,58.5,46.0,50.0,46.4,44.0,92,68,36,29.98,29.81,16,4,23,0.00
2013-3-18,48.2,43.1,39.5,43.0,40.3,37.0,95,90,83,30.03,29.86,19,8,27,0.57
2013-3-19,54.9,45.3,36.5,43.0,30.2,16.0,98,61,28,30.14,29.91,22,8,31,0.01
2013-3-20,52.0,40.0,28.6,31.0,18.8,9.0,92,48,19,30.16,29.88,22,5,29,0.00
2013-3-21,34.7,28.2,21.6,28.0,15.4,11.0,91,60,41,30.05,29.90,22,12,28,0.00
2013-3-22,46.9,33.6,21.9,25.0,16.8,13.0,78,53,29,30.14,30.05,10,3,14,0.00
2013-3-23,54.5,44.0,35.9,43.0,35.3,25.0,89,72,55,30.09,29.88,13,2,18,0.02
2013-3-24,47.6,42.8,38.8,42.0,40.0,37.0,94,89,81,29.92,29.52,18,6,25,0.89
2013-3-25,39.0,34.3,30.0,38.0,25.6,20.0,94,71,53,29.98,29.56,27,10,38,0.04
2013-3-26,36.1,31.1,28.0,28.0,26.2,24.0,91,82,67,30.30,29.99,22,13,32,0.00
2013-3-27,41.5,34.0,29.6,28.0,25.5,23.0,89,72,54,30.38,30.27,22,11,28,0.00
2013-3-28,48.5,35.6,25.3,27.0,23.4,20.0,91,65,33,30.40,30.30,23,6,28,0.00
2013-3-29,53.3,37.3,23.3,38.0,29.2,19.0,94,77,27,30.42,30.32,17,3,24,0.07
2013-3-30,62.9,49.1,38.5,44.0,39.9,37.0,96,74,45,30.32,30.06,7,2,12,0.17
2013-3-31,63.4,52.5,47.1,53.0,48.6,42.0,97,87,63,30.06,29.84,15,3,18,0.43
2013-4-1,60.3,50.6,41.4,49.0,43.1,34.0,97,78,48,30.03,29.89,21,6,28,0.01
2013-4-2,52.8,45.2,37.2,35.0,25.5,19.0,66,48,27,30.21,30.02,18,9,26,0.00
2013-4-3,56.7,45.3,33.4,32.0,22.2,15.0,70,42,21,30.30,30.19,16,4,18,0.00
2013-4-4,48.5,39.9,35.4,37.0,29.4,15.0,95,70,29,30.26,30.02,14,5,25,0.45
2013-4-5,55.7,43.9,37.4,42.0,37.9,35.0,96,81,50,30.14,30.01,19,6,25,0.00
2013-4-6,67.1,49.7,31.1,41.0,34.1,30.0,97,63,27,30.28,30.14,13,4,23,0.00
2013-4-7,70.5,58.1,45.6,46.0,41.1,35.0,82,55,38,30.21,30.06,16,4,20,0.00
2013-4-8,75.4,60.0,43.1,53.0,48.1,42.0,94,68,44,30.17,30.03,17,5,22,0.00
2013-4-9,81.9,66.6,46.2,58.0,52.9,45.0,96,65,41,30.21,30.05,15,3,20,0.00
2013-4-10,86.0,68.3,49.1,58.0,53.8,48.0,96,64,33,30.11,29.91,17,4,25,0.00
2013-4-11,76.3,65.5,56.8,62.0,55.6,53.0,88,71,47,29.94,29.69,23,5,27,0.08
2013-4-12,63.8,58.5,50.5,59.0,47.5,39.0,96,69,47,29.90,29.60,25,10,29,0.59
2013-4-13,67.7,56.5,47.4,44.0,38.4,32.0,81,54,29,30.07,29.91,21,9,27,0.00
2013-4-14,70.1,55.0,38.5,49.0,41.7,37.0,95,66,32,30.12,29.97,21,6,30,0.00
2013-4-15,69.6,59.3,51.5,56.0,53.1,48.0,96,81,59,30.19,29.98,20,6,24,0.06
2013-4-16,79.8,67.4,57.4,59.0,56.7,54.0,91,71,45,30.27,30.14,16,5,20,0.00
2013-4-17,72.4,64.4,58.2,63.0,58.9,56.0,94,82,66,30.23,30.10,21,4,29,0.15
2013-4-18,74.9,67.0,60.5,62.0,58.1,55.0,89,74,51,30.10,29.89,20,8,29,0.00
2013-4-19,67.5,59.1,44.1,63.0,55.1,37.0,95,86,72,29.98,29.69,25,12,32,0.52
2013-4-20,55.2,45.4,36.3,37.0,31.9,27.0,87,62,37,30.34,29.98,22,11,28,0.00
2013-4-21,62.8,47.9,31.9,39.0,33.5,29.0,96,63,33,30.47,30.34,17,4,22,0.00
2013-4-22,66.4,53.1,42.8,41.0,37.5,34.0,81,57,35,30.42,30.19,12,5,17,0.00
2013-4-23,73.6,56.5,35.4,46.0,38.4,31.0,88,54,24,30.29,30.07,14,4,22,0.00
2013-4-24,72.9,59.3,45.5,58.0,49.9,43.0,93,73,46,30.14,29.98,19,5,27,0.01
2013-4-25,63.1,50.7,42.0,45.0,33.2,9.0,90,59,12,30.38,30.15,21,9,26,0.00
2013-4-26,68.0,52.6,34.2,46.0,36.6,32.0,94,61,31,30.46,30.30,12,4,18,0.00
2013-4-27,55.4,52.1,50.3,51.0,49.3,47.0,95,90,77,30.40,30.24,12,2,14,0.82
2013-4-28,52.9,50.8,46.9,52.0,48.7,44.0,96,92,79,30.25,30.02,14,4,27,1.24
2013-4-29,74.3,60.1,50.6,57.0,52.9,50.0,97,80,48,30.09,29.93,14,3,15,0.02
2013-4-30,76.2,62.9,51.5,59.0,54.4,51.0,98,77,47,30.14,29.98,13,4,19,0.00
2013-5-1,68.5,60.8,53.8,56.0,52.7,51.0,90,76,57,30.26,30.15,18,6,25,0.00
2013-5-2,66.0,58.3,54.3,56.0,52.8,51.0,91,82,68,30.29,30.21,14,6,21,0.00
2013-5-3,61.3,56.8,53.7,52.0,49.8,46.0,88,78,62,30.22,30.07,20,8,29,0.00
2013-5-4,56.0,51.2,47.7,49.0,45.4,40.0,91,81,73,30.07,29.96,25,9,29,0.29
2013-5-5,51.5,49.4,46.3,50.0,46.7,44.0,95,90,85,29.98,29.82,16,7,34,2.13
2013-5-6,65.5,56.3,46.6,51.0,47.4,39.0,97,75,40,29.92,29.79,16,5,24,0.01
2013-5-7,66.5,53.3,41.5,52.0,46.1,41.0,97,79,45,29.98,29.88,16,3,20,0.01
2013-5-8,67.5,57.1,50.8,59.0,53.5,50.0,97,88,62,30.07,29.95,15,2,16,0.06
2013-5-9,76.1,61.5,51.9,59.0,54.1,51.0,98,80,47,30.15,30.04,15,4,22,0.00
2013-5-10,78.0,63.1,49.6,63.0,56.4,49.0,97,81,50,30.12,29.95,12,2,20,0.00
2013-5-11,73.7,62.7,57.1,61.0,58.6,54.0,97,87,63,29.97,29.82,14,3,19,0.17
2013-5-12,59.1,53.7,43.7,53.0,42.8,35.0,90,69,41,30.11,29.91,23,10,28,0.00
2013-5-13,59.0,48.8,37.3,40.0,34.1,28.0,92,61,32,30.24,30.11,21,6,29,0.00
2013-5-14,75.3,56.0,35.7,51.0,42.0,34.0,96,65,32,30.31,30.10,10,2,17,0.00
2013-5-15,83.5,64.5,48.1,58.0,52.9,47.0,96,71,36,30.15,29.97,17,5,21,0.00
2013-5-16,78.4,64.0,50.7,60.0,55.1,50.0,97,76,45,30.05,29.97,10,2,14,0.00
2013-5-17,81.2,66.8,52.6,61.0,56.5,52.0,97,73,42,30.12,30.00,19,4,21,0.00
2013-5-18,70.6,64.6,60.5,64.0,60.9,57.0,97,88,77,30.08,30.02,14,4,21,1.00
2013-5-19,77.4,66.5,60.2,67.0,63.1,60.0,98,89,67,30.09,29.99,12,2,20,0.05
2013-5-20,84.4,69.3,58.7,68.0,63.2,58.0,99,83,51,30.12,30.00,13,3,17,0.00
2013-5-21,86.7,70.9,60.3,68.0,63.1,60.0,99,79,47,30.06,29.91,10,3,20,0.00
2013-5-22,81.6,67.2,60.3,67.0,62.4,58.0,97,85,58,29.99,29.84,9,2,20,0.28
2013-5-23,79.0,67.5,59.4,64.0,59.6,55.0,97,78,45,29.96,29.84,20,5,26,0.01
2013-5-24,63.3,58.4,47.2,55.0,47.6,40.0,89,69,46,30.25,29.95,28,10,41,0.00
2013-5-25,71.5,56.0,41.5,48.0,40.1,25.0,95,62,18,30.36,30.21,18,6,28,0.00
2013-5-26,71.4,60.5,52.6,52.0,49.0,43.0,89,68,39,30.30,30.18,18,3,22,0.00
2013-5-27,79.9,65.0,47.6,60.0,54.3,47.0,97,72,48,30.28,30.12,16,5,24,0.00
2013-5-28,82.6,70.0,57.1,63.0,59.3,56.0,95,72,44,30.20,30.10,16,4,24,0.00
2013-5-29,85.8,71.6,58.3,63.0,59.9,55.0,96,70,38,30.22,30.11,14,4,22,0.00
2013-5-30,82.3,70.0,57.6,64.0,60.6,57.0,97,75,50,30.26,30.13,15,4,22,0.00
2013-5-31,81.4,72.0,61.9,64.0,61.3,59.0,93,71,48,30.20,30.08,19,5,24,0.00
2013-6-1,82.0,73.5,63.6,65.0,62.8,60.0,93,71,49,30.11,29.97,20,6,28,0.00
2013-6-2,71.1,66.8,64.1,67.0,64.8,63.0,98,93,80,30.02,29.90,9,2,12,0.67
2013-6-3,77.3,69.2,61.9,66.0,63.1,60.0,98,82,58,29.98,29.87,17,5,24,0.00
2013-6-4,82.6,70.2,59.0,65.0,61.8,58.0,98,77,48,30.06,29.97,10,2,18,0.00
2013-6-5,80.1,70.2,62.5,67.0,64.1,61.0,96,82,61,30.07,29.92,14,4,22,0.57
2013-6-6,78.6,70.0,64.1,69.0,65.8,63.0,97,87,70,29.96,29.75,10,4,16,0.06
2013-6-7,78.9,68.8,62.0,68.0,65.2,61.0,99,89,65,29.84,29.67,15,4,23,0.77
2013-6-8,78.2,67.6,58.5,66.0,62.6,58.0,99,85,59,30.09,29.83,9,2,12,0.32
2013-6-9,80.7,67.9,59.2,70.0,64.5,59.0,98,89,65,30.15,30.02,15,3,21,1.28
2013-6-10,80.5,69.9,63.1,68.0,64.8,61.0,97,84,55,30.02,29.87,14,4,18,0.57
2013-6-11,79.6,70.8,62.8,66.0,64.0,62.0,98,80,59,30.02,29.93,17,5,21,0.02
2013-6-12,88.4,73.8,61.1,75.0,67.6,60.0,98,83,58,30.05,29.92,18,4,22,0.00
2013-6-13,90.6,71.2,63.3,73.0,66.6,63.0,99,87,46,29.92,29.70,10,2,27,0.34
2013-6-14,76.7,66.7,55.7,64.0,58.0,55.0,98,76,50,30.07,29.83,18,4,23,0.00
2013-6-15,83.4,68.2,52.6,66.0,58.5,52.0,98,74,47,30.16,30.04,9,1,15,0.00
2013-6-16,86.1,71.9,58.4,70.0,63.4,58.0,97,77,45,30.14,30.00,8,1,9,0.00
2013-6-17,81.4,71.4,65.8,70.0,67.4,65.0,98,88,63,30.02,29.92,11,2,15,0.12
2013-6-18,77.1,69.0,63.1,70.0,66.1,61.0,97,90,78,29.96,29.80,16,3,20,0.06
2013-6-19,83.2,68.4,58.5,66.0,62.2,58.0,98,83,54,30.11,29.94,14,2,20,0.66
2013-6-20,80.7,69.9,59.9,67.0,64.0,60.0,99,83,60,30.21,30.11,11,2,17,0.00
2013-6-21,84.3,70.4,61.6,66.0,62.8,61.0,98,79,46,30.25,30.15,10,2,16,0.00
2013-6-22,85.3,70.5,57.4,66.0,61.0,57.0,98,75,45,30.25,30.09,8,2,11,0.00
2013-6-23,83.6,70.6,59.7,69.0,64.5,59.0,96,82,56,30.22,30.11,7,2,12,0.00
2013-6-24,86.5,72.6,63.5,71.0,66.9,63.0,98,83,55,30.21,30.08,6,2,12,0.00
2013-6-25,86.8,72.1,64.2,70.0,67.2,63.0,97,85,55,30.15,30.00,8,2,14,0.00
2013-6-26,83.7,72.2,64.4,73.0,68.5,64.0,98,89,66,30.05,29.90,12,2,16,0.24
2013-6-27,83.4,72.2,65.0,73.0,68.4,64.0,98,88,70,29.95,29.77,21,4,22,0.14
2013-6-28,86.4,73.4,64.9,72.0,67.2,64.0,99,83,51,29.82,29.62,15,3,21,0.01
2013-6-29,82.5,70.8,63.1,68.0,62.8,59.0,99,79,45,29.71,29.64,11,3,16,0.00
2013-6-30,85.5,70.1,58.1,67.0,62.2,58.0,98,79,44,29.80,29.70,10,2,15,0.09
2013-7-1,78.4,69.6,64.6,73.0,66.3,64.0,97,89,69,29.94,29.79,12,3,17,1.03
2013-7-2,83.3,72.3,64.2,70.0,66.5,63.0,98,83,55,30.10,29.93,13,6,22,0.16
2013-7-3,76.8,67.9,62.3,71.0,65.9,62.0,98,93,82,30.22,30.07,11,3,18,2.09
2013-7-4,77.9,67.4,62.4,71.0,65.7,62.0,98,94,77,30.22,30.14,14,3,23,1.20
2013-7-5,82.0,72.0,67.3,69.0,66.8,66.0,97,85,59,30.22,30.14,13,6,21,0.04
2013-7-6,82.4,71.8,66.2,70.0,68.0,65.0,98,88,65,30.18,30.07,13,4,18,1.27
2013-7-7,80.5,72.1,68.6,72.0,69.2,67.0,98,91,73,30.14,30.07,8,2,15,0.80
2013-7-8,84.8,73.7,67.5,70.0,67.7,65.0,98,83,54,30.19,30.09,11,3,13,0.04
2013-7-9,91.3,75.0,66.7,73.0,68.1,66.0,98,82,45,30.16,30.02,13,2,18,0.37
2013-7-10,89.7,72.1,66.6,74.0,68.8,66.0,99,90,54,30.11,29.94,11,2,14,0.94
2013-7-11,80.2,71.2,65.8,71.0,68.1,65.0,98,90,72,29.97,29.87,8,2,15,0.02
2013-7-12,81.9,71.4,65.2,68.0,66.3,63.0,99,85,60,29.99,29.87,10,3,17,0.02
2013-7-13,78.7,70.2,63.1,67.0,64.9,62.0,96,84,67,30.10,29.98,14,4,19,0.01
2013-7-14,73.9,69.6,65.1,70.0,67.7,64.0,98,94,87,30.27,30.08,9,2,24,1.09
2013-7-15,84.6,72.4,64.1,71.0,66.9,64.0,99,84,56,30.33,30.25,7,2,12,0.01
2013-7-16,88.4,72.3,62.9,73.0,67.9,62.0,98,87,55,30.34,30.23,15,2,38,0.48
2013-7-17,87.1,72.5,66.8,75.0,69.7,66.0,98,91,63,30.31,30.17,9,2,11,0.29
2013-7-18,87.9,75.0,67.1,74.0,69.7,66.0,98,85,59,30.22,30.06,14,2,15,0.00
2013-7-19,92.1,75.8,66.7,74.0,69.4,66.0,98,83,52,30.12,29.95,13,2,21,0.00
2013-7-20,83.0,73.3,67.3,73.0,69.3,67.0,97,88,67,30.03,29.92,13,2,13,0.00
2013-7-21,83.0,71.9,67.5,72.0,68.7,66.0,97,90,68,30.01,29.93,13,2,18,0.06
2013-7-22,88.3,74.4,66.3,73.0,68.1,65.0,97,82,51,30.00,29.80,8,2,14,0.22
2013-7-23,85.1,73.2,66.0,71.0,67.8,65.0,98,84,60,29.89,29.78,14,4,17,0.01
2013-7-24,82.4,72.9,65.3,71.0,67.1,64.0,97,83,56,29.86,29.79,15,4,19,0.00
2013-7-25,84.3,72.3,64.1,68.0,64.6,60.0,97,79,44,30.03,29.85,14,3,19,0.00
2013-7-26,84.1,70.9,59.0,69.0,64.7,58.0,98,82,57,30.08,29.98,11,3,18,0.00
2013-7-27,83.4,71.5,66.2,70.0,67.0,65.0,97,87,55,30.02,29.86,10,2,13,0.60
2013-7-28,79.6,71.7,64.2,68.0,65.9,63.0,97,83,62,30.03,29.90,16,3,18,0.00
2013-7-29,79.0,67.9,58.6,64.0,60.1,56.0,97,79,47,30.20,30.03,11,3,15,0.00
2013-7-30,83.2,69.2,56.8,69.0,62.6,56.0,97,81,52,30.25,30.14,5,1,9,0.00
2013-7-31,76.8,69.7,65.0,70.0,66.8,64.0,97,90,79,30.18,29.95,9,2,14,0.25
2013-8-1,80.1,72.3,66.0,71.0,67.9,65.0,97,87,66,29.98,29.90,16,3,20,0.04
2013-8-2,86.6,71.3,61.2,69.0,65.1,60.0,97,83,52,30.04,29.96,12,2,13,0.00
2013-8-3,82.1,71.0,63.2,70.0,65.7,62.0,98,85,59,30.04,29.96,10,2,15,0.00
2013-8-4,78.4,70.8,64.2,69.0,65.1,63.0,97,83,61,30.05,29.98,20,5,24,0.00
2013-8-5,83.4,71.4,60.8,70.0,64.5,60.0,97,80,57,30.08,29.94,14,2,17,0.00
2013-8-6,87.5,73.4,65.0,71.0,66.4,63.0,94,80,50,30.02,29.94,9,2,17,0.00
2013-8-7,76.0,71.5,69.3,71.0,68.7,67.0,94,91,82,30.03,29.98,16,4,18,0.20
2013-8-8,83.6,73.2,66.9,73.0,69.5,66.0,97,88,68,30.05,29.98,14,3,16,0.00
2013-8-9,88.6,74.6,68.4,73.0,70.5,67.0,97,88,58,30.07,30.00,11,1,15,0.15
2013-8-10,82.7,72.9,67.8,75.0,70.0,67.0,98,91,74,30.13,30.04,12,2,23,0.30
2013-8-11,85.2,72.4,66.0,74.0,69.2,65.0,98,90,66,30.16,30.05,10,2,16,0.02
2013-8-12,86.4,73.0,67.3,75.0,69.6,67.0,98,89,62,30.10,29.97,11,2,12,0.00
2013-8-13,82.1,73.0,67.7,73.0,69.3,67.0,98,88,69,29.97,29.83,17,3,24,0.03
2013-8-14,73.3,67.6,62.3,67.0,62.1,58.0,96,83,59,30.07,29.89,11,4,15,0.00
2013-8-15,72.3,64.5,58.5,61.0,58.1,56.0,96,80,63,30.14,30.06,13,5,17,0.00
2013-8-16,76.2,65.5,56.0,60.0,57.7,55.0,96,78,55,30.15,30.07,10,4,20,0.00
2013-8-17,70.7,64.6,60.7,62.0,59.5,56.0,96,84,65,30.17,30.10,10,4,15,0.12
2013-8-18,78.2,66.8,61.8,69.0,64.1,61.0,97,91,70,30.22,30.12,9,2,15,0.12
2013-8-19,75.3,68.3,63.9,68.0,65.5,63.0,98,91,74,30.19,30.08,7,1,11,0.82
2013-8-20,80.8,70.7,64.2,71.0,67.1,64.0,98,88,69,30.20,30.10,8,1,10,0.01
2013-8-21,77.7,70.0,64.9,71.0,67.6,64.0,98,92,79,30.22,30.11,10,1,10,0.01
2013-8-22,82.8,72.6,65.7,71.0,67.3,65.0,98,85,60,30.18,30.02,10,2,16,0.00
2013-8-23,81.4,70.7,63.3,70.0,66.5,63.0,98,87,64,30.09,29.98,15,3,18,0.00
2013-8-24,80.4,70.1,63.1,66.0,62.1,57.0,97,78,46,30.29,30.09,12,4,18,0.00
2013-8-25,80.6,66.6,53.9,62.0,58.6,53.0,97,78,48,30.40,30.27,6,2,13,0.00
2013-8-26,79.1,65.9,55.7,66.0,60.7,55.0,98,85,59,30.34,30.15,11,2,14,0.00
2013-8-27,80.1,68.2,57.9,70.0,64.3,57.0,98,88,69,30.18,30.04,20,4,20,0.00
2013-8-28,84.3,73.3,64.9,71.0,68.2,64.0,97,85,64,30.08,29.95,11,4,17,0.00
2013-8-29,84.6,75.8,69.5,73.0,70.4,68.0,97,84,66,29.98,29.90,14,4,21,0.23
2013-8-30,82.6,74.1,67.8,72.0,69.9,67.0,98,87,69,30.02,29.91,13,4,18,0.00
2013-8-31,82.6,73.1,67.7,73.0,69.3,67.0,97,88,72,29.96,29.86,8,2,12,0.00
2013-9-1,86.9,73.5,66.9,73.0,69.2,66.0,98,87,59,29.91,29.80,12,2,27,0.23
2013-9-2,81.8,72.3,66.2,72.0,68.5,65.0,98,88,68,29.93,29.82,14,3,18,0.00
2013-9-3,79.9,70.5,62.9,68.0,65.5,61.0,98,85,64,30.01,29.85,20,5,22,0.31
2013-9-4,84.6,69.7,59.9,68.0,63.9,59.0,98,84,55,30.13,30.01,8,2,15,0.00
2013-9-5,80.1,67.7,59.0,66.0,61.7,55.0,98,83,44,30.17,30.10,10,3,15,0.00
2013-9-6,84.3,67.5,55.6,65.0,60.5,55.0,98,81,46,30.20,30.07,11,2,13,0.00
2013-9-7,80.6,68.0,59.0,66.0,62.5,58.0,98,84,57,30.14,30.00,9,2,14,0.00
2013-9-8,80.3,68.7,59.1,69.0,64.3,58.0,98,87,64,30.03,29.96,10,2,14,0.00
2013-9-9,84.6,71.7,63.1,70.0,66.0,62.0,98,84,58,30.14,30.04,8,2,17,0.00
2013-9-10,86.8,72.7,62.8,69.0,65.6,62.0,98,81,49,30.25,30.13,12,2,14,0.00
2013-9-11,84.0,71.1,63.2,72.0,66.8,62.0,98,87,62,30.25,30.08,10,2,14,0.38
2013-9-12,79.6,70.2,65.0,73.0,67.4,63.0,99,91,73,30.11,29.88,20,3,31,0.30
2013-9-13,73.4,66.3,56.2,65.0,59.9,53.0,97,81,53,29.95,29.85,20,6,24,0.03
2013-9-14,77.2,61.0,49.3,60.0,53.6,48.0,97,79,47,30.13,29.95,6,1,11,0.00
2013-9-15,77.4,63.4,52.1,62.0,57.5,51.0,97,83,57,30.22,30.11,11,3,18,0.01
2013-9-16,76.7,64.7,55.3,64.0,59.5,55.0,98,85,52,30.19,30.10,14,3,19,0.00
2013-9-17,70.5,64.0,60.2,60.0,56.1,53.0,96,77,60,30.29,30.18,13,5,20,0.00
2013-9-18,66.8,62.2,57.0,61.0,57.1,53.0,96,83,72,30.28,30.17,11,3,14,0.00
2013-9-19,76.7,66.9,61.2,67.0,62.6,60.0,96,87,65,30.20,30.08,13,2,18,0.00
2013-9-20,84.5,69.6,61.6,68.0,64.1,61.0,98,84,54,30.10,29.91,9,2,11,0.00
2013-9-21,67.6,63.4,60.7,66.0,62.1,60.0,97,95,92,29.92,29.72,12,4,18,1.08
2013-9-22,69.5,60.6,53.3,60.0,55.6,52.0,98,85,61,29.95,29.78,12,4,19,0.06
2013-9-23,77.1,60.8,49.8,63.0,55.6,49.0,98,85,52,30.07,29.96,8,2,11,0.00
2013-9-24,79.5,63.8,53.6,63.0,58.3,53.0,98,84,52,30.09,29.92,10,3,17,0.01
2013-9-25,64.2,61.9,59.3,62.0,60.0,58.0,96,93,87,29.93,29.84,9,3,10,0.76
2013-9-26,73.5,63.2,56.2,63.0,59.3,55.0,97,88,61,30.06,29.90,7,1,12,0.00
2013-9-27,76.2,62.3,53.7,61.0,56.8,53.0,98,84,54,30.19,30.06,10,2,10,0.00
2013-9-28,71.3,61.8,52.2,59.0,55.6,51.0,98,81,61,30.26,30.14,13,3,19,0.00
2013-9-29,72.9,61.3,50.6,60.0,54.8,50.0,97,80,56,30.19,30.03,7,2,14,0.00
2013-9-30,75.6,63.5,54.6,61.0,56.9,54.0,96,81,52,30.11,29.99,10,2,12,0.00
2013-10-1,77.2,62.5,54.3,62.0,57.8,54.0,98,86,56,30.18,30.07,9,2,15,0.00
2013-10-2,78.0,62.8,53.8,64.0,58.3,53.0,98,87,57,30.21,30.09,8,2,13,0.00
2013-10-3,79.8,65.0,56.3,66.0,60.3,56.0,98,86,55,30.17,30.06,5,1,10,0.00
2013-10-4,84.0,66.9,56.7,67.0,61.0,56.0,98,84,49,30.19,30.08,7,1,10,0.00
2013-10-5,82.8,67.2,58.1,66.0,61.6,58.0,98,84,51,30.18,30.02,11,2,13,0.00
2013-10-6,79.3,67.6,58.6,66.0,61.5,58.0,98,83,57,30.06,29.88,19,5,23,0.01
2013-10-7,67.1,58.5,51.1,64.0,54.9,50.0,97,88,68,30.07,29.80,17,6,24,1.16
2013-10-8,68.5,55.0,44.7,52.0,48.3,44.0,98,81,51,30.23,30.07,9,3,17,0.01
2013-10-9,73.4,56.4,44.5,57.0,50.0,44.0,98,82,51,30.27,30.12,7,1,13,0.00
2013-10-10,69.1,56.3,46.2,55.0,50.6,46.0,98,83,56,30.17,30.06,20,5,24,0.01
2013-10-11,72.0,58.7,47.3,59.0,53.2,47.0,98,84,56,30.11,30.00,13,4,21,0.00
2013-10-12,71.7,60.6,51.3,60.0,56.2,51.0,98,86,64,30.12,30.02,12,3,17,0.00
2013-10-13,71.5,63.8,58.3,63.0,60.4,58.0,97,89,73,30.21,30.13,13,2,18,0.08
2013-10-14,70.8,62.9,56.6,62.0,59.5,55.0,98,89,72,30.24,30.13,10,2,15,0.00
2013-10-15,68.6,60.0,53.0,59.0,56.2,52.0,97,88,71,30.19,30.05,10,2,15,0.00
2013-10-16,70.6,60.2,52.0,61.0,55.8,51.0,97,86,65,30.09,29.96,7,2,10,0.01
2013-10-17,75.0,62.5,54.9,65.0,59.6,52.0,97,90,71,29.99,29.82,17,4,20,0.02
2013-10-18,69.7,56.2,47.2,53.0,49.7,46.0,95,80,54,30.06,29.93,10,3,17,0.00
2013-10-19,61.7,55.1,49.3,55.0,50.5,47.0,96,85,62,29.99,29.87,15,4,19,0.00
2013-10-20,67.6,50.5,39.6,47.0,40.3,25.0,96,73,24,30.12,29.98,10,2,13,0.00
2013-10-21,67.6,51.8,37.5,53.0,45.9,37.0,97,83,51,30.19,30.02,11,3,16,0.01
2013-10-22,66.0,55.6,48.3,53.0,49.7,47.0,96,82,53,30.05,29.85,15,3,16,0.00
2013-10-23,52.8,45.7,38.4,47.0,38.3,30.0,96,77,55,30.11,29.79,27,8,35,0.01
2013-10-24,50.8,41.4,29.8,39.0,33.9,28.0,94,76,56,30.24,30.10,13,4,17,0.00
2013-10-25,43.6,36.8,29.3,37.0,28.5,26.0,92,73,52,30.44,30.25,24,7,28,0.00
2013-10-26,58.4,40.2,24.7,41.0,30.6,23.0,95,73,36,30.42,30.15,6,1,10,0.00
2013-10-27,64.6,54.4,47.3,50.0,44.3,39.0,92,69,56,30.17,30.07,11,4,22,0.00
2013-10-28,61.7,52.0,44.1,55.0,49.8,43.0,97,92,74,30.29,30.15,4,0,9,0.04
2013-10-29,71.4,56.9,46.8,56.0,50.2,46.0,98,81,45,30.38,30.25,6,1,9,0.00
2013-10-30,73.7,60.5,53.5,58.0,53.8,51.0,94,80,55,30.30,30.16,9,2,11,0.00
2013-10-31,64.9,60.7,53.1,61.0,55.7,52.0,97,84,70,30.18,29.76,28,8,34,0.00
2013-11-1,73.4,64.1,50.1,61.0,54.8,47.0,94,73,43,29.79,29.63,16,6,37,0.03
2013-11-2,57.3,48.7,42.0,47.0,42.4,38.0,96,80,52,30.07,29.77,33,5,39,0.00
2013-11-3,54.7,45.0,36.3,40.0,37.6,34.0,93,77,46,30.40,30.07,17,4,18,0.00
2013-11-4,56.8,44.2,32.1,37.0,32.8,31.0,97,68,39,30.54,30.39,12,4,21,0.00
2013-11-5,60.2,46.6,35.9,41.0,33.7,29.0,85,63,32,30.57,30.43,11,3,16,0.00
2013-11-6,67.2,55.7,47.3,53.0,49.3,41.0,95,80,59,30.45,30.14,13,5,23,0.00
2013-11-7,55.5,49.3,40.3,53.0,44.4,33.0,96,83,67,30.23,30.04,22,8,34,0.04
2013-11-8,49.5,40.2,30.0,32.0,27.3,22.0,87,63,36,30.38,30.23,23,8,26,0.00
2013-11-9,47.3,32.1,28.0,31.0,26.6,25.0,89,81,45,30.43,30.38,9,2,15,0.00
2013-11-10,62.5,47.1,34.5,40.0,34.6,31.0,90,65,34,30.36,30.23,22,7,32,0.00
2013-11-11,64.8,43.7,27.7,36.0,30.8,25.0,95,66,23,30.38,30.20,9,2,13,0.00
2013-11-12,50.2,36.7,25.4,39.0,29.0,15.0,91,74,52,30.56,30.16,28,11,36,0.00
2013-11-13,38.9,28.6,21.5,22.0,18.6,15.0,87,68,43,30.66,30.56,15,5,22,0.00
2013-11-14,60.0,36.2,18.8,25.0,20.0,13.0,93,60,16,30.59,30.37,11,3,13,0.00
2013-11-15,45.9,37.3,28.1,44.0,32.3,23.0,97,83,53,30.41,30.25,6,1,8,0.04
2013-11-16,62.8,51.7,42.9,54.0,48.8,42.0,97,90,73,30.31,30.19,11,4,16,0.00
2013-11-17,62.1,58.1,55.7,57.0,55.3,53.0,96,90,81,30.20,29.88,14,7,24,0.34
2013-11-18,59.6,54.3,45.9,57.0,43.5,32.0,98,70,42,30.09,29.85,28,9,31,0.04
2013-11-19,51.3,43.0,37.1,33.0,28.3,23.0,77,58,34,30.27,30.09,15,7,22,0.00
2013-11-20,50.9,42.2,36.0,31.0,27.4,25.0,70,57,39,30.46,30.26,19,8,29,0.00
2013-11-21,50.5,46.2,40.7,49.0,40.5,31.0,96,81,66,30.51,30.40,11,5,16,0.02
2013-11-22,66.0,56.6,49.2,58.0,53.6,48.0,96,90,75,30.42,30.16,12,4,19,0.01
2013-11-23,56.3,45.1,32.4,54.0,40.3,21.0,94,84,63,30.30,30.13,24,12,36,0.00
2013-11-24,32.0,25.9,20.3,22.0,13.3,8.0,75,60,39,30.58,30.30,22,10,31,0.00
2013-11-25,39.9,30.7,19.6,27.0,12.0,6.0,78,48,28,30.60,30.36,15,6,21,0.00
2013-11-26,43.7,38.6,32.1,43.0,37.3,27.0,97,95,78,30.36,29.73,14,4,23,1.73
2013-11-27,41.7,29.7,24.0,40.0,25.8,17.0,95,86,73,30.30,29.72,26,16,38,0.03
2013-11-28,44.4,28.1,17.5,27.0,20.6,15.0,94,76,40,30.56,30.30,14,4,22,0.00
2013-11-29,51.4,33.5,22.7,32.0,25.9,21.0,95,77,40,30.66,30.54,10,3,12,0.00
2013-11-30,47.7,35.6,28.4,27.0,25.2,23.0,83,67,44,30.66,30.42,11,4,14,0.00
2013-12-1,54.6,36.3,24.2,38.0,29.4,23.0,94,78,48,30.42,30.11,10,2,15,0.00
2013-12-2,55.5,42.2,28.4,43.0,35.4,27.0,95,78,55,30.10,29.85,6,1,7,0.00
2013-12-3,58.4,49.2,39.9,49.0,45.1,39.0,95,86,71,29.97,29.87,18,3,19,0.00
2013-12-4,66.3,55.8,48.9,56.0,51.9,47.0,96,87,69,30.06,29.94,15,4,22,0.00
2013-12-5,71.0,61.2,50.6,62.0,58.2,49.0,97,90,73,30.09,29.96,13,3,17,0.24
2013-12-6,69.9,63.6,49.4,64.0,60.4,48.0,98,89,78,30.07,29.90,23,7,30,0.21
2013-12-7,49.3,41.3,38.5,48.0,38.9,37.0,96,91,84,30.42,30.02,20,8,27,0.01
2013-12-8,43.4,38.6,35.8,40.0,36.4,35.0,95,91,85,30.39,30.23,18,9,25,0.21
2013-12-9,50.0,45.1,37.8,48.0,43.9,37.0,97,95,91,30.24,30.06,12,4,16,0.20
2013-12-10,44.0,37.8,29.3,43.0,34.3,24.0,98,87,73,30.40,29.96,28,10,37,0.27
2013-12-11,49.2,34.3,21.5,27.0,23.0,18.0,96,68,35,30.53,30.38,9,3,22,0.00
2013-12-12,35.8,30.4,24.5,24.0,18.2,8.0,83,63,33,30.51,30.41,23,9,26,0.00
2013-12-13,49.3,33.2,18.3,32.0,21.7,16.0,92,67,30,30.48,30.30,6,1,8,0.00
2013-12-14,43.7,41.2,36.7,41.0,34.8,23.0,97,80,47,30.31,29.83,13,6,19,0.54
2013-12-15,42.9,34.8,27.4,42.0,31.9,25.0,98,89,83,30.20,29.82,25,10,34,0.03
2013-12-16,56.1,35.8,24.7,34.0,28.8,24.0,95,79,36,30.30,30.17,10,2,10,0.00
2013-12-17,57.6,40.3,26.4,39.0,31.1,24.0,97,73,47,30.24,30.00,24,5,31,0.01
2013-12-18,45.2,34.1,25.9,25.0,19.4,9.0,80,59,24,30.38,30.18,27,8,31,0.00
2013-12-19,59.7,40.6,22.0,37.0,26.5,20.0,93,62,33,30.42,30.25,12,2,19,0.00
2013-12-20,64.5,48.6,33.3,45.0,35.2,27.0,88,63,34,30.27,30.12,15,3,16,0.00
2013-12-21,63.9,57.5,44.3,62.0,54.8,42.0,95,90,85,30.16,29.95,23,8,25,0.09
2013-12-22,65.6,58.9,54.8,62.0,57.2,54.0,98,94,82,30.07,29.90,18,5,24,2.31
2013-12-23,56.1,45.5,33.9,56.0,43.4,32.0,98,92,85,30.28,30.01,20,8,29,0.23
2013-12-24,33.8,29.3,20.7,32.0,23.6,17.0,91,79,69,30.51,30.27,22,10,33,0.00
2013-12-25,40.1,27.1,17.2,21.0,17.3,14.0,94,70,39,30.57,30.43,13,3,17,0.00
2013-12-26,45.0,31.4,21.3,29.0,23.6,17.0,93,75,46,30.47,30.36,18,4,19,0.00
2013-12-27,49.6,32.2,21.2,31.0,24.8,20.0,96,78,34,30.56,30.44,11,2,16,0.00
2013-12-28,48.6,33.6,21.7,38.0,29.1,20.0,95,85,44,30.51,30.16,9,2,17,0.28
2013-12-29,49.8,42.5,38.6,45.0,39.8,37.0,97,90,80,30.14,29.88,22,8,31,0.28
2013-12-30,43.7,38.7,33.9,39.0,35.4,31.0,91,88,79,30.23,30.04,15,7,20,0.00
2013-12-31,38.0,32.3,25.3,31.0,25.8,22.0,94,78,52,30.46,30.21,21,5,30,0.00
2014-1-1,46.8,34.1,23.3,30.0,26.0,22.0,94,75,46,30.45,30.19,13,4,22,0.00
2014-1-2,46.2,34.3,19.2,44.0,31.0,14.0,95,87,80,30.19,29.73,22,7,36,0.03